#�ϑ�����,���ϕ���,���ϕ���,�ő啗��,�ő啗����������,�ő�u�ԕ���,�ő�u�ԕ�����������
#(�N����),(m/s)   ,(16����),(m/s)   ,(16����)        ,(m/s)       ,(16����)            
2016/9/8 0:01,1,2,1,1,1.8,4
2016/9/8 0:02,1,2,1,1,2,5
2016/9/8 0:03,1.1,3,1.1,1,1.4,6
2016/9/8 0:04,1.1,3,1.1,1,1.5,5
2016/9/8 0:05,1,4,1.1,1,1.6,5
2016/9/8 0:06,1,4,1,1,1.5,5
2016/9/8 0:07,0.9,4,1,1,1.3,5
2016/9/8 0:08,0.9,4,0.9,1,1,1
2016/9/8 0:09,0.9,4,0.9,1,1.6,16
2016/9/8 0:10,0.9,4,0.9,3,1.6,16
2016/9/8 0:11,0.9,3,0.9,3,1.9,16
2016/9/8 0:12,1,3,1,3,1.9,16
2016/9/8 0:13,1.1,2,1.1,3,2.7,16
2016/9/8 0:14,1.2,1,1.2,2,2.6,15
2016/9/8 0:15,1.3,1,1.3,1,2.5,14
2016/9/8 0:16,1.5,16,1.5,16,3.3,13
2016/9/8 0:17,1.7,15,1.7,15,3,12
2016/9/8 0:18,1.8,15,1.8,15,2.2,12
2016/9/8 0:19,1.8,14,1.8,15,1.3,12
2016/9/8 0:20,1.8,14,1.8,15,2.1,10
2016/9/8 0:21,1.8,13,1.8,15,2.1,11
2016/9/8 0:22,1.7,13,1.8,15,1.9,11
2016/9/8 0:23,1.7,12,1.7,15,2.4,10
2016/9/8 0:24,1.6,12,1.7,15,2.2,9
2016/9/8 0:25,1.6,11,1.7,15,2.9,11
2016/9/8 0:26,1.6,11,1.6,15,2.6,12
2016/9/8 0:27,1.5,11,1.6,15,3.2,11
2016/9/8 0:28,1.5,11,1.5,15,2.1,10
2016/9/8 0:29,1.6,11,1.6,14,2,11
2016/9/8 0:30,1.5,11,1.6,14,2.1,11
2016/9/8 0:31,1.4,11,1.5,13,0.8,13
2016/9/8 0:32,1.3,11,1.4,13,0.6,13
2016/9/8 0:33,1.2,12,1.3,12,1.3,13
2016/9/8 0:34,1.1,12,1.2,12,0.9,11
2016/9/8 0:35,1,12,1.1,11,0.9,14
2016/9/8 0:36,0.8,12,1,11,0.8,7
2016/9/8 0:37,0.7,12,0.8,11,0.8,6
2016/9/8 0:38,0.6,12,0.7,11,0.8,5
2016/9/8 0:39,0.5,11,0.6,11,0.8,5
2016/9/8 0:40,0.5,10,0.5,11,1.5,3
2016/9/8 0:41,0.5,5,0.5,11,1.5,3
2016/9/8 0:42,0.6,4,0.6,11,1.3,3
2016/9/8 0:43,0.5,4,0.6,12,0.6,1
2016/9/8 0:44,0.5,3,0.5,12,0.8,1
2016/9/8 0:45,0.6,4,0.6,12,1,3
2016/9/8 0:46,0.6,3,0.6,12,1,4
2016/9/8 0:47,0.6,3,0.6,12,1.1,5
2016/9/8 0:48,0.7,3,0.7,3,1.1,5
2016/9/8 0:49,0.7,3,0.7,3,1,5
2016/9/8 0:50,0.7,4,0.7,3,1,5
2016/9/8 0:51,0.6,4,0.7,3,0.9,5
2016/9/8 0:52,0.6,4,0.6,3,1,4
2016/9/8 0:53,0.7,4,0.7,3,2.1,2
2016/9/8 0:54,0.9,4,0.9,4,3.2,2
2016/9/8 0:55,1,4,1,4,2.9,2
2016/9/8 0:56,1.1,4,1.1,4,2.2,2
2016/9/8 0:57,1.1,3,1.1,4,2,1
2016/9/8 0:58,1.2,3,1.2,3,1.9,1
2016/9/8 0:59,1.2,2,1.2,3,1.8,1
2016/9/8 1:00,1.2,2,1.2,3,1.3,15
2016/9/8 1:01,1.2,1,1.2,3,1.4,15
2016/9/8 1:02,1.2,1,1.2,3,2.4,16
2016/9/8 1:03,1.3,1,1.3,1,2.6,15
2016/9/8 1:04,1.3,1,1.3,1,2.7,16
2016/9/8 1:05,1.3,16,1.3,1,2,1
2016/9/8 1:06,1.3,16,1.3,1,2.6,1
2016/9/8 1:07,1.3,16,1.3,1,2.2,1
2016/9/8 1:08,1.3,16,1.4,16,2.1,1
2016/9/8 1:09,1.2,16,1.3,16,1,1
2016/9/8 1:10,1.3,16,1.3,16,1.3,4
2016/9/8 1:11,1.2,16,1.3,16,1.3,1
2016/9/8 1:12,1.2,16,1.2,16,1.5,15
2016/9/8 1:13,1.2,16,1.2,16,3.6,15
2016/9/8 1:14,1.2,16,1.2,16,3.1,16
2016/9/8 1:15,1.2,16,1.2,16,2.7,16
2016/9/8 1:16,1.2,16,1.2,16,2.2,1
2016/9/8 1:17,1.2,16,1.2,16,2.7,16
2016/9/8 1:18,1.3,16,1.3,16,3.1,16
2016/9/8 1:19,1.5,16,1.5,16,2.7,16
2016/9/8 1:20,1.6,16,1.6,16,3.1,16
2016/9/8 1:21,1.8,16,1.8,16,3.5,16
2016/9/8 1:22,1.9,16,1.9,16,3.1,2
2016/9/8 1:23,2,16,2,16,3.5,16
2016/9/8 1:24,2,16,2.1,16,3.1,16
2016/9/8 1:25,2.1,16,2.1,16,3.7,15
2016/9/8 1:26,2.2,16,2.2,16,4.1,15
2016/9/8 1:27,2.4,16,2.4,16,4.5,16
2016/9/8 1:28,2.5,16,2.5,16,3.9,16
2016/9/8 1:29,2.5,16,2.5,16,4.3,15
2016/9/8 1:30,2.6,16,2.6,16,4.8,15
2016/9/8 1:31,2.7,16,2.8,16,4.8,16
2016/9/8 1:32,2.7,16,2.7,16,3.3,15
2016/9/8 1:33,2.7,16,2.7,16,3.7,16
2016/9/8 1:34,2.8,16,2.8,16,4.4,16
2016/9/8 1:35,2.9,16,2.9,16,3.2,1
2016/9/8 1:36,2.7,16,2.9,16,3.1,15
2016/9/8 1:37,2.5,16,2.7,16,1.9,15
2016/9/8 1:38,2.4,15,2.5,16,1.9,15
2016/9/8 1:39,2.3,16,2.4,16,2.5,16
2016/9/8 1:40,2.2,16,2.3,16,2.7,16
2016/9/8 1:41,2.1,16,2.2,16,3.8,16
2016/9/8 1:42,2.1,16,2.1,16,2.9,1
2016/9/8 1:43,2,16,2.1,16,3.3,1
2016/9/8 1:44,1.9,16,2,16,2.7,16
2016/9/8 1:45,1.8,16,1.9,16,2.4,13
2016/9/8 1:46,1.8,16,1.8,16,3.6,14
2016/9/8 1:47,1.9,15,1.9,16,2.7,14
2016/9/8 1:48,1.9,15,1.9,15,2.5,12
2016/9/8 1:49,1.9,15,1.9,15,2.4,13
2016/9/8 1:50,1.8,14,1.9,16,2,12
2016/9/8 1:51,1.7,14,1.8,16,2,11
2016/9/8 1:52,1.6,13,1.7,16,1.1,13
2016/9/8 1:53,1.5,13,1.6,16,1.3,13
2016/9/8 1:54,1.3,13,1.5,16,0.6,13
2016/9/8 1:55,1.2,13,1.3,15,0.9,13
2016/9/8 1:56,1.1,12,1.2,15,1.3,11
2016/9/8 1:57,1,12,1.1,15,1.3,11
2016/9/8 1:58,0.9,12,1,15,1,12
2016/9/8 1:59,0.8,12,0.9,15,1.1,12
2016/9/8 2:00,0.7,12,0.8,14,0.8,12
2016/9/8 2:01,0.6,12,0.7,14,0.6,11
2016/9/8 2:02,0.6,12,0.6,13,1,10
2016/9/8 2:03,0.5,12,0.6,13,0.3,9
2016/9/8 2:04,0.5,11,0.5,13,0.5,8
2016/9/8 2:05,0.5,11,0.5,13,0.9,5
2016/9/8 2:06,0.5,10,0.5,12,0.6,6
2016/9/8 2:07,0.4,9,0.5,12,0.3,6
2016/9/8 2:08,0.3,8,0.4,12,0,5
2016/9/8 2:09,0.2,7,0.3,12,0,5
2016/9/8 2:10,0.2,7,0.2,12,0.1,5
2016/9/8 2:11,0.2,6,0.2,12,1,8
2016/9/8 2:12,0.2,6,0.2,12,1,9
2016/9/8 2:13,0.3,6,0.3,12,1,8
2016/9/8 2:14,0.3,6,0.3,11,1.4,8
2016/9/8 2:15,0.4,7,0.4,11,1.4,8
2016/9/8 2:16,0.5,7,0.5,10,1.6,8
2016/9/8 2:17,0.6,7,0.6,7,1.8,8
2016/9/8 2:18,0.7,8,0.7,7,1.5,8
2016/9/8 2:19,0.8,8,0.8,8,1.5,8
2016/9/8 2:20,0.8,8,0.8,8,1.5,8
2016/9/8 2:21,0.8,8,0.8,8,0.8,8
2016/9/8 2:22,0.8,8,0.8,8,0.4,8
2016/9/8 2:23,0.7,8,0.7,8,0.1,8
2016/9/8 2:24,0.6,8,0.7,8,0,8
2016/9/8 2:25,0.5,8,0.6,8,0,8
2016/9/8 2:26,0.4,8,0.5,8,0,8
2016/9/8 2:27,0.3,8,0.4,8,0.9,9
2016/9/8 2:28,0.2,8,0.3,8,0.9,9
2016/9/8 2:29,0.2,9,0.2,8,2.1,14
2016/9/8 2:30,0.3,9,0.3,8,2.1,15
2016/9/8 2:31,0.4,9,0.4,8,2,16
2016/9/8 2:32,0.5,10,0.5,8,1.4,16
2016/9/8 2:33,0.6,12,0.6,8,1.3,14
2016/9/8 2:34,0.6,13,0.6,8,1,16
2016/9/8 2:35,0.6,14,0.6,11,0.1,15
2016/9/8 2:36,0.6,15,0.6,11,0.1,2
2016/9/8 2:37,0.6,15,0.6,11,0.1,4
2016/9/8 2:38,0.6,16,0.6,11,0.1,4
2016/9/8 2:39,0.5,16,0.6,11,0.1,9
2016/9/8 2:40,0.4,16,0.5,11,0.8,9
2016/9/8 2:41,0.2,16,0.4,11,0.1,9
2016/9/8 2:42,0.1,15,0.2,11,0.1,9
2016/9/8 2:43,0,9,0.1,12,0.1,9
2016/9/8 2:44,0,7,0,14,0.1,6
2016/9/8 2:45,0,7,0,15,0.8,4
2016/9/8 2:46,0.1,7,0.1,15,0.8,4
2016/9/8 2:47,0.2,6,0.2,15,0.9,4
2016/9/8 2:48,0.3,7,0.3,16,1.3,4
2016/9/8 2:49,0.3,6,0.3,16,1.3,4
2016/9/8 2:50,0.4,5,0.4,16,0.9,4
2016/9/8 2:51,0.4,5,0.4,6,0.4,3
2016/9/8 2:52,0.4,4,0.4,6,0.1,3
2016/9/8 2:53,0.4,4,0.4,6,0.3,16
2016/9/8 2:54,0.4,3,0.4,6,0.1,12
2016/9/8 2:55,0.4,2,0.4,6,0.1,12
2016/9/8 2:56,0.3,2,0.4,6,0.1,12
2016/9/8 2:57,0.2,1,0.3,6,0.1,11
2016/9/8 2:58,0.1,14,0.2,6,0.1,10
2016/9/8 2:59,0.1,12,0.1,6,1.3,10
2016/9/8 3:00,0.1,12,0.1,5,1.1,11
2016/9/8 3:01,0.2,12,0.2,5,1.1,12
2016/9/8 3:02,0.3,12,0.3,4,0.9,12
2016/9/8 3:03,0.3,12,0.3,3,0.8,13
2016/9/8 3:04,0.4,12,0.4,3,1.3,16
2016/9/8 3:05,0.5,12,0.5,12,1.5,1
2016/9/8 3:06,0.6,13,0.6,12,2,16
2016/9/8 3:07,0.8,13,0.8,13,2,1
2016/9/8 3:08,0.9,14,0.9,14,2.1,16
2016/9/8 3:09,1,15,1,14,2,16
2016/9/8 3:10,1.1,15,1.1,15,1.9,16
2016/9/8 3:11,1.1,16,1.1,15,1.9,16
2016/9/8 3:12,1.1,16,1.1,15,1.3,1
2016/9/8 3:13,1.1,16,1.1,15,1.1,1
2016/9/8 3:14,1.1,16,1.1,15,0.9,2
2016/9/8 3:15,1,16,1.1,15,0.3,16
2016/9/8 3:16,0.9,1,1,15,0.6,2
2016/9/8 3:17,0.8,1,0.9,15,0.8,2
2016/9/8 3:18,0.7,1,0.8,15,1.4,3
2016/9/8 3:19,0.6,1,0.7,15,1,3
2016/9/8 3:20,0.5,1,0.6,15,0.5,2
2016/9/8 3:21,0.4,1,0.5,16,0.4,16
2016/9/8 3:22,0.3,1,0.4,16,0.3,16
2016/9/8 3:23,0.3,1,0.3,16,0.9,16
2016/9/8 3:24,0.3,1,0.3,16,0.9,16
2016/9/8 3:25,0.4,1,0.4,16,1,16
2016/9/8 3:26,0.5,1,0.5,1,1.1,1
2016/9/8 3:27,0.5,1,0.5,1,0.9,1
2016/9/8 3:28,0.4,1,0.5,1,0.6,1
2016/9/8 3:29,0.4,1,0.4,1,0.1,1
2016/9/8 3:30,0.4,1,0.4,1,0.6,3
2016/9/8 3:31,0.4,1,0.4,1,0.6,3
2016/9/8 3:32,0.4,1,0.4,1,0.8,3
2016/9/8 3:33,0.4,1,0.5,1,0.8,3
2016/9/8 3:34,0.4,1,0.4,1,0.4,2
2016/9/8 3:35,0.3,1,0.4,1,0.1,16
2016/9/8 3:36,0.2,2,0.3,1,0.1,2
2016/9/8 3:37,0.2,2,0.2,1,0.1,4
2016/9/8 3:38,0.2,2,0.2,1,0.8,6
2016/9/8 3:39,0.3,3,0.3,1,1.1,6
2016/9/8 3:40,0.4,3,0.4,1,1.1,5
2016/9/8 3:41,0.4,4,0.4,1,1.3,5
2016/9/8 3:42,0.4,4,0.4,1,1.1,6
2016/9/8 3:43,0.4,5,0.4,1,0.6,7
2016/9/8 3:44,0.4,6,0.4,1,0.1,8
2016/9/8 3:45,0.4,6,0.4,3,0,8
2016/9/8 3:46,0.4,7,0.4,3,0.3,9
2016/9/8 3:47,0.4,7,0.4,3,1,10
2016/9/8 3:48,0.5,8,0.5,7,0.9,11
2016/9/8 3:49,0.4,8,0.5,7,1,13
2016/9/8 3:50,0.5,9,0.5,7,1.4,15
2016/9/8 3:51,0.5,10,0.5,7,1.9,14
2016/9/8 3:52,0.6,11,0.6,11,2.4,15
2016/9/8 3:53,0.7,12,0.7,12,2.1,15
2016/9/8 3:54,0.8,13,0.8,12,2,15
2016/9/8 3:55,0.9,13,0.9,13,1.4,15
2016/9/8 3:56,1,14,1,14,1.1,16
2016/9/8 3:57,1,14,1,14,1.1,14
2016/9/8 3:58,0.9,15,1,14,0.6,14
2016/9/8 3:59,0.8,15,0.9,14,0,15
2016/9/8 4:00,0.8,15,0.8,14,0,1
2016/9/8 4:01,0.6,15,0.8,14,0.5,10
2016/9/8 4:02,0.6,15,0.6,14,1.1,11
2016/9/8 4:03,0.6,14,0.6,14,1.4,11
2016/9/8 4:04,0.6,14,0.6,14,2.1,11
2016/9/8 4:05,0.7,13,0.7,14,2,11
2016/9/8 4:06,0.7,13,0.7,14,1.6,11
2016/9/8 4:07,0.8,12,0.8,14,1.6,11
2016/9/8 4:08,0.9,12,0.9,15,1.8,11
2016/9/8 4:09,1.1,11,1.1,11,2,10
2016/9/8 4:10,1.2,11,1.2,11,2.4,10
2016/9/8 4:11,1.4,11,1.4,11,2.4,9
2016/9/8 4:12,1.4,10,1.4,11,1.9,9
2016/9/8 4:13,1.5,10,1.5,10,2,9
2016/9/8 4:14,1.4,10,1.5,10,2,10
2016/9/8 4:15,1.3,10,1.4,10,1.6,11
2016/9/8 4:16,1.3,10,1.3,10,2,9
2016/9/8 4:17,1.3,10,1.3,10,2.2,9
2016/9/8 4:18,1.3,9,1.3,10,2.2,9
2016/9/8 4:19,1.3,9,1.3,10,2.1,10
2016/9/8 4:20,1.2,9,1.2,10,1.5,9
2016/9/8 4:21,1.2,9,1.2,10,1.9,9
2016/9/8 4:22,1,9,1.1,10,0.4,10
2016/9/8 4:23,0.9,9,1,10,0.4,8
2016/9/8 4:24,0.8,9,0.9,10,0,10
2016/9/8 4:25,0.7,9,0.8,10,0,10
2016/9/8 4:26,0.6,9,0.7,10,0.1,6
2016/9/8 4:27,0.5,9,0.6,10,0.1,3
2016/9/8 4:28,0.3,9,0.5,9,0.1,1
2016/9/8 4:29,0.2,9,0.3,9,0.1,16
2016/9/8 4:30,0.2,10,0.2,9,0.6,15
2016/9/8 4:31,0.1,14,0.2,9,1,15
2016/9/8 4:32,0.2,16,0.2,9,1,15
2016/9/8 4:33,0.2,16,0.2,9,1,16
2016/9/8 4:34,0.3,16,0.3,9,1.3,16
2016/9/8 4:35,0.3,16,0.3,9,1.3,15
2016/9/8 4:36,0.4,16,0.4,9,1.3,16
2016/9/8 4:37,0.5,15,0.5,9,1.4,15
2016/9/8 4:38,0.6,15,0.6,15,1.5,16
2016/9/8 4:39,0.7,15,0.7,15,1.9,15
2016/9/8 4:40,0.9,15,0.9,15,2.2,16
2016/9/8 4:41,1,15,1,15,2.6,15
2016/9/8 4:42,1.1,15,1.1,15,3,16
2016/9/8 4:43,1.2,15,1.2,15,2.9,15
2016/9/8 4:44,1.4,15,1.4,15,2.1,16
2016/9/8 4:45,1.4,15,1.4,15,2,1
2016/9/8 4:46,1.4,16,1.4,15,1.4,16
2016/9/8 4:47,1.4,16,1.4,15,1,16
2016/9/8 4:48,1.4,16,1.4,15,1.5,15
2016/9/8 4:49,1.3,16,1.4,15,1.3,15
2016/9/8 4:50,1.2,16,1.3,15,1,15
2016/9/8 4:51,1.1,16,1.2,15,0.8,15
2016/9/8 4:52,0.9,16,1.1,15,1,16
2016/9/8 4:53,0.8,16,0.9,15,0.8,15
2016/9/8 4:54,0.6,16,0.8,15,0.5,1
2016/9/8 4:55,0.5,16,0.6,15,0.1,1
2016/9/8 4:56,0.4,16,0.5,16,0.1,3
2016/9/8 4:57,0.3,16,0.4,16,0,1
2016/9/8 4:58,0.3,16,0.3,16,0,15
2016/9/8 4:59,0.2,15,0.3,16,0.3,12
2016/9/8 5:00,0.1,15,0.2,16,0.5,12
2016/9/8 5:01,0.2,14,0.2,16,0.6,11
2016/9/8 5:02,0.2,14,0.2,16,1.4,11
2016/9/8 5:03,0.3,13,0.3,16,1.4,11
2016/9/8 5:04,0.4,12,0.4,16,1.6,11
2016/9/8 5:05,0.5,12,0.5,16,1.5,11
2016/9/8 5:06,0.6,12,0.6,12,1.5,10
2016/9/8 5:07,0.7,11,0.7,11,1.3,11
2016/9/8 5:08,0.8,11,0.8,11,1.1,12
2016/9/8 5:09,0.8,11,0.8,11,0.9,11
2016/9/8 5:10,0.9,11,0.9,11,0.9,9
2016/9/8 5:11,0.9,11,0.9,11,1.1,10
2016/9/8 5:12,0.9,11,0.9,11,1.3,9
2016/9/8 5:13,0.9,11,0.9,11,2,9
2016/9/8 5:14,0.9,11,0.9,11,2.5,10
2016/9/8 5:15,1,11,1,11,2.1,11
2016/9/8 5:16,1,11,1,11,1.9,10
2016/9/8 5:17,0.9,11,1,11,1.1,12
2016/9/8 5:18,0.9,11,0.9,11,1,14
2016/9/8 5:19,0.9,11,0.9,11,1.5,13
2016/9/8 5:20,0.9,11,0.9,11,0.8,13
2016/9/8 5:21,0.8,12,0.9,11,0.3,13
2016/9/8 5:22,0.8,12,0.8,11,0.1,10
2016/9/8 5:23,0.7,12,0.8,11,1.5,11
2016/9/8 5:24,0.6,12,0.7,11,1,12
2016/9/8 5:25,0.5,12,0.6,11,1,10
2016/9/8 5:26,0.4,12,0.5,11,0.1,13
2016/9/8 5:27,0.4,12,0.4,11,1.1,10
2016/9/8 5:28,0.4,12,0.4,11,1.6,10
2016/9/8 5:29,0.5,11,0.5,11,1.5,12
2016/9/8 5:30,0.5,11,0.5,12,1.5,9
2016/9/8 5:31,0.6,11,0.6,12,1.3,10
2016/9/8 5:32,0.7,10,0.7,12,1.8,9
2016/9/8 5:33,0.7,10,0.7,12,1.5,12
2016/9/8 5:34,0.8,10,0.8,10,1.9,10
2016/9/8 5:35,0.9,10,0.9,10,1.9,10
2016/9/8 5:36,1.1,10,1.1,10,2.4,11
2016/9/8 5:37,1.2,10,1.2,10,2.6,10
2016/9/8 5:38,1.2,10,1.2,10,3.3,12
2016/9/8 5:39,1.3,11,1.3,10,3.1,10
2016/9/8 5:40,1.4,11,1.4,11,3.3,11
2016/9/8 5:41,1.4,11,1.4,11,1.9,15
2016/9/8 5:42,1.4,12,1.4,11,1.1,13
2016/9/8 5:43,1.4,12,1.4,11,2.7,12
2016/9/8 5:44,1.3,13,1.4,11,1.9,11
2016/9/8 5:45,1.4,13,1.4,11,3.6,15
2016/9/8 5:46,1.5,14,1.5,14,3.6,14
2016/9/8 5:47,1.7,14,1.7,14,5.1,15
2016/9/8 5:48,1.7,14,1.7,14,4.7,15
2016/9/8 5:49,1.7,15,1.7,14,3.9,16
2016/9/8 5:50,1.9,15,1.9,15,7.5,14
2016/9/8 5:51,2.3,15,2.3,15,9.9,16
2016/9/8 5:52,2.6,15,2.6,15,6.3,16
2016/9/8 5:53,2.9,16,2.9,16,10.1,15
2016/9/8 5:54,3.4,16,3.4,16,9.2,1
2016/9/8 5:55,3.8,16,3.8,16,8.9,16
2016/9/8 5:56,4.3,16,4.3,16,10.2,16
2016/9/8 5:57,4.5,16,4.5,16,9.9,1
2016/9/8 5:58,4.9,16,4.9,16,11.7,15
2016/9/8 5:59,5.2,16,5.2,16,11.1,16
2016/9/8 6:00,5.3,16,5.3,16,7.1,16
2016/9/8 6:01,5.5,16,5.5,16,9.5,16
2016/9/8 6:02,5.8,16,5.8,16,12.1,15
2016/9/8 6:03,6,16,6.1,16,9,16
2016/9/8 6:04,5.9,16,6,16,8.4,1
2016/9/8 6:05,5.7,16,5.9,16,7.4,15
2016/9/8 6:06,5.3,16,5.7,16,6.5,16
2016/9/8 6:07,5.1,16,5.3,16,7.7,16
2016/9/8 6:08,4.9,16,5.2,16,8.4,16
2016/9/8 6:09,4.8,16,5,16,7.2,15
2016/9/8 6:10,4.7,16,4.8,16,7.5,16
2016/9/8 6:11,4.7,16,4.8,16,10.2,14
2016/9/8 6:12,4.5,16,4.6,16,10.9,14
2016/9/8 6:13,4.4,16,4.5,16,9.1,15
2016/9/8 6:14,4.7,15,4.7,16,11.3,16
2016/9/8 6:15,4.8,15,4.8,16,6.9,14
2016/9/8 6:16,4.9,15,5,16,9.8,15
2016/9/8 6:17,5,15,5,16,8.5,15
2016/9/8 6:18,5.2,15,5.2,15,10.2,15
2016/9/8 6:19,5.6,15,5.7,15,13.6,16
2016/9/8 6:20,5.8,15,5.8,15,10,16
2016/9/8 6:21,5.7,15,5.8,15,7.8,15
2016/9/8 6:22,5.9,15,5.9,15,11.7,14
2016/9/8 6:23,6.2,15,6.2,15,12.5,16
2016/9/8 6:24,6,15,6.2,15,8.6,15
2016/9/8 6:25,6,15,6,15,9.2,16
2016/9/8 6:26,6.2,15,6.2,15,10.2,15
2016/9/8 6:27,6.3,15,6.3,15,10.2,14
2016/9/8 6:28,6.6,15,6.6,15,11.6,15
2016/9/8 6:29,6.8,15,6.8,15,14.8,15
2016/9/8 6:30,7,15,7,15,13.1,15
2016/9/8 6:31,7.3,15,7.3,15,14,16
2016/9/8 6:32,7.4,15,7.5,15,12.8,15
2016/9/8 6:33,7.3,15,7.4,15,11.1,14
2016/9/8 6:34,7.5,15,7.5,15,10.7,16
2016/9/8 6:35,7.6,15,7.6,15,9.8,15
2016/9/8 6:36,7.8,15,7.8,15,16.9,16
2016/9/8 6:37,7.9,15,8,15,15.4,15
2016/9/8 6:38,7.5,15,7.8,15,11.7,14
2016/9/8 6:39,7.4,15,7.6,15,12.6,16
2016/9/8 6:40,7.6,15,7.6,15,14.8,16
2016/9/8 6:41,7.6,15,7.6,15,13.9,16
2016/9/8 6:42,7.6,15,7.6,15,13.5,15
2016/9/8 6:43,7.8,15,7.8,15,12.8,15
2016/9/8 6:44,7.9,15,7.9,15,13.2,14
2016/9/8 6:45,7.9,15,8,15,9.7,15
2016/9/8 6:46,7.8,15,7.9,15,12.6,15
2016/9/8 6:47,7.8,15,7.8,15,13.3,15
2016/9/8 6:48,8.3,15,8.3,15,14.5,15
2016/9/8 6:49,8.3,15,8.3,15,13.3,15
2016/9/8 6:50,8.3,15,8.4,15,13.5,15
2016/9/8 6:51,8.2,15,8.3,15,14.5,16
2016/9/8 6:52,8.2,15,8.3,15,12.2,15
2016/9/8 6:53,8,15,8.2,15,12.6,15
2016/9/8 6:54,8.1,15,8.1,15,15.1,14
2016/9/8 6:55,8.3,15,8.3,15,16.2,14
2016/9/8 6:56,8.3,15,8.4,15,12.8,15
2016/9/8 6:57,8.4,15,8.4,15,17.8,16
2016/9/8 6:58,8.2,15,8.4,15,13.8,16
2016/9/8 6:59,7.8,15,8.1,15,11.6,15
2016/9/8 7:00,7.6,15,7.8,15,9.1,14
2016/9/8 7:01,7.2,15,7.6,15,10.2,15
2016/9/8 7:02,7.1,15,7.3,15,10.5,15
2016/9/8 7:03,7.2,15,7.2,15,14.4,15
2016/9/8 7:04,7.2,15,7.4,15,15.2,15
2016/9/8 7:05,7,15,7.1,15,10,16
2016/9/8 7:06,6.8,15,7,15,11.7,16
2016/9/8 7:07,6.4,16,6.8,15,10.6,16
2016/9/8 7:08,6.5,16,6.5,15,11.4,16
2016/9/8 7:09,6.8,16,6.8,15,13.3,16
2016/9/8 7:10,6.8,16,6.9,15,10.3,16
2016/9/8 7:11,6.9,16,6.9,15,9.2,16
2016/9/8 7:12,6.6,16,6.9,15,8.2,16
2016/9/8 7:13,6.3,16,6.6,15,11.4,16
2016/9/8 7:14,6.1,16,6.2,15,11.9,16
2016/9/8 7:15,6.1,16,6.1,15,9,15
2016/9/8 7:16,6,16,6.1,16,9.4,15
2016/9/8 7:17,6.1,16,6.2,16,9,15
2016/9/8 7:18,6.1,16,6.2,16,15.4,15
2016/9/8 7:19,5.8,16,6.1,16,10.6,15
2016/9/8 7:20,5.8,16,5.8,16,11.6,15
2016/9/8 7:21,5.7,16,5.8,16,8.9,1
2016/9/8 7:22,6.1,16,6.1,16,12.5,16
2016/9/8 7:23,6.2,16,6.2,16,10.8,14
2016/9/8 7:24,6.2,16,6.3,16,11.3,16
2016/9/8 7:25,6.6,16,6.6,16,14.9,16
2016/9/8 7:26,6.8,16,6.8,16,11.3,15
2016/9/8 7:27,6.7,16,6.8,16,10.7,16
2016/9/8 7:28,6.6,16,6.8,16,9.1,15
2016/9/8 7:29,6.5,16,6.6,16,9,16
2016/9/8 7:30,6.3,16,6.6,16,7,14
2016/9/8 7:31,6.2,16,6.3,16,7,16
2016/9/8 7:32,5.9,16,6.2,16,9.2,16
2016/9/8 7:33,5.8,16,5.9,16,8.6,16
2016/9/8 7:34,5.9,16,5.9,16,13,16
2016/9/8 7:35,5.7,16,6,16,13.1,16
2016/9/8 7:36,5.9,16,5.9,16,11.9,16
2016/9/8 7:37,5.9,16,6,16,8.5,1
2016/9/8 7:38,5.6,16,5.9,16,6.4,16
2016/9/8 7:39,5.3,16,5.5,16,4.8,1
2016/9/8 7:40,5.2,16,5.3,16,4.2,1
2016/9/8 7:41,5.2,16,5.2,16,6.5,1
2016/9/8 7:42,5.2,16,5.2,16,8.6,15
2016/9/8 7:43,5.2,16,5.2,16,8.6,1
2016/9/8 7:44,5.1,16,5.3,16,9,15
2016/9/8 7:45,4.6,16,5,16,7.4,2
2016/9/8 7:46,4.2,16,4.5,16,12.1,16
2016/9/8 7:47,4.4,16,4.4,16,11.7,16
2016/9/8 7:48,4.5,16,4.5,16,7.1,15
2016/9/8 7:49,4.7,16,4.7,16,7.7,16
2016/9/8 7:50,4.8,16,4.9,16,7.6,14
2016/9/8 7:51,4.9,16,4.9,16,7,2
2016/9/8 7:52,4.8,16,5,16,7.6,2
2016/9/8 7:53,4.6,16,4.8,16,9.5,1
2016/9/8 7:54,4.3,16,4.6,16,5.1,16
2016/9/8 7:55,4.2,16,4.3,16,4.7,16
2016/9/8 7:56,3.9,16,4.2,16,3.5,16
2016/9/8 7:57,3.3,16,3.9,16,4.2,15
2016/9/8 7:58,3.1,16,3.3,16,4.3,16
2016/9/8 7:59,2.9,16,3.1,16,4.5,15
2016/9/8 8:00,2.5,16,2.9,16,2.2,14
2016/9/8 8:01,2.4,16,2.5,16,4.8,2
2016/9/8 8:02,2.1,16,2.4,16,4.7,2
2016/9/8 8:03,2.1,16,2.1,16,7.8,15
2016/9/8 8:04,2.3,16,2.3,16,7.6,15
2016/9/8 8:05,2.5,16,2.5,16,6.8,16
2016/9/8 8:06,2.7,16,2.7,16,6.3,15
2016/9/8 8:07,2.8,16,2.8,16,5.7,16
2016/9/8 8:08,2.8,16,2.8,16,4.9,16
2016/9/8 8:09,2.9,16,2.9,16,4.9,16
2016/9/8 8:10,3.2,16,3.2,16,6.4,1
2016/9/8 8:11,3.2,16,3.3,16,5.1,15
2016/9/8 8:12,3.3,16,3.3,16,5.2,16
2016/9/8 8:13,3.3,16,3.4,16,5.1,16
2016/9/8 8:14,3,16,3.2,16,4.8,1
2016/9/8 8:15,2.9,16,3,16,4.2,16
2016/9/8 8:16,2.7,16,2.9,16,4.8,16
2016/9/8 8:17,2.7,16,2.8,16,5.4,14
2016/9/8 8:18,2.7,16,2.7,16,5.5,15
2016/9/8 8:19,2.9,16,2.9,16,9.5,15
2016/9/8 8:20,3.1,16,3.1,16,10.9,16
2016/9/8 8:21,3.1,16,3.1,16,4.4,15
2016/9/8 8:22,3,16,3.1,16,2.7,3
2016/9/8 8:23,3,16,3,16,6,16
2016/9/8 8:24,3.1,16,3.1,16,5.8,16
2016/9/8 8:25,3.3,16,3.3,16,9.7,15
2016/9/8 8:26,3.3,16,3.3,16,4.7,15
2016/9/8 8:27,3.3,16,3.4,16,5.5,16
2016/9/8 8:28,3.5,16,3.5,16,9.1,16
2016/9/8 8:29,3.4,16,3.6,16,8.4,16
2016/9/8 8:30,3.2,16,3.4,16,6.3,16
2016/9/8 8:31,3.4,16,3.4,16,8.5,15
2016/9/8 8:32,3.6,16,3.6,16,8.3,16
2016/9/8 8:33,3.8,16,3.8,16,5.7,15
2016/9/8 8:34,3.7,16,3.8,16,4.2,1
2016/9/8 8:35,3.5,16,3.6,16,4.5,2
2016/9/8 8:36,3.5,16,3.5,16,4.7,16
2016/9/8 8:37,3.3,16,3.4,16,2.9,14
2016/9/8 8:38,3.1,16,3.3,16,6,13
2016/9/8 8:39,3,16,3.1,16,5.1,1
2016/9/8 8:40,3,16,3,16,6.5,16
2016/9/8 8:41,2.9,16,3,16,6.5,15
2016/9/8 8:42,2.7,16,2.9,16,3.9,2
2016/9/8 8:43,2.6,16,2.7,16,5.1,16
2016/9/8 8:44,2.3,16,2.6,16,1.8,16
2016/9/8 8:45,2.2,16,2.3,16,2.1,12
2016/9/8 8:46,2.1,16,2.2,16,1.5,2
2016/9/8 8:47,2.3,16,2.3,16,4.8,15
2016/9/8 8:48,2.4,16,2.4,16,5,16
2016/9/8 8:49,2.4,16,2.4,16,5.2,16
2016/9/8 8:50,2.1,16,2.4,16,2.4,2
2016/9/8 8:51,2,16,2.1,16,2.7,15
2016/9/8 8:52,2,16,2,16,5.5,1
2016/9/8 8:53,2.1,16,2.1,16,6.4,15
2016/9/8 8:54,2.6,16,2.6,16,8.5,15
2016/9/8 8:55,2.8,16,2.8,16,6,16
2016/9/8 8:56,3.1,16,3.1,16,6.8,16
2016/9/8 8:57,2.9,16,3.1,16,3.1,14
2016/9/8 8:58,2.8,16,2.9,16,3.2,1
2016/9/8 8:59,2.8,16,2.8,16,7.1,15
2016/9/8 9:00,2.9,16,2.9,16,4.5,15
2016/9/8 9:01,3.1,16,3.1,16,6.8,14
2016/9/8 9:02,3.2,16,3.2,16,6.2,16
2016/9/8 9:03,3.1,15,3.2,16,6.5,14
2016/9/8 9:04,2.9,16,3.1,16,5.7,15
2016/9/8 9:05,2.9,16,2.9,16,6.4,1
2016/9/8 9:06,3.1,15,3.1,16,9.3,15
2016/9/8 9:07,3.4,15,3.4,15,7.4,15
2016/9/8 9:08,3.6,15,3.6,15,6.3,14
2016/9/8 9:09,3.4,15,3.6,15,4.7,13
2016/9/8 9:10,3.4,15,3.5,15,5.4,1
2016/9/8 9:11,3.5,15,3.5,15,7.6,15
2016/9/8 9:12,3.6,15,3.7,15,12.1,16
2016/9/8 9:13,3.8,15,3.8,15,7.6,1
2016/9/8 9:14,4,15,4,15,10.3,16
2016/9/8 9:15,4.4,15,4.4,15,9.7,16
2016/9/8 9:16,4.6,15,4.6,15,16.8,16
2016/9/8 9:17,4.7,16,4.7,16,12.1,14
2016/9/8 9:18,5,16,5,16,11.9,14
2016/9/8 9:19,5.6,16,5.6,16,12.5,15
2016/9/8 9:20,5.9,15,5.9,15,11.4,16
2016/9/8 9:21,5.9,15,5.9,15,9.9,15
2016/9/8 9:22,5.8,16,5.9,15,5.6,16
2016/9/8 9:23,5.8,16,5.8,15,7.7,16
2016/9/8 9:24,5.7,16,5.8,15,9.4,15
2016/9/8 9:25,5.5,16,5.7,15,8.3,15
2016/9/8 9:26,5.2,16,5.6,15,9,16
2016/9/8 9:27,5,16,5.2,15,6.8,14
2016/9/8 9:28,4.6,16,4.9,15,7,16
2016/9/8 9:29,4.2,16,4.6,15,5.7,16
2016/9/8 9:30,4,16,4.1,15,5.6,16
2016/9/8 9:31,3.8,16,4,15,4.5,16
2016/9/8 9:32,3.6,16,3.8,16,3,2
2016/9/8 9:33,3.3,16,3.6,16,2.4,15
2016/9/8 9:34,2.9,16,3.2,16,2.5,2
2016/9/8 9:35,2.6,16,2.9,16,3.5,9
2016/9/8 9:36,2.2,1,2.6,16,2.2,3
2016/9/8 9:37,2.1,1,2.3,16,2.4,3
2016/9/8 9:38,1.8,1,2.1,16,2.5,5
2016/9/8 9:39,1.6,2,1.8,16,2.7,2
2016/9/8 9:40,1.4,2,1.6,16,2.5,1
2016/9/8 9:41,1.3,2,1.4,16,2.6,2
2016/9/8 9:42,1.5,2,1.5,16,3.9,3
2016/9/8 9:43,1.5,2,1.5,16,4.2,3
2016/9/8 9:44,1.6,2,1.6,16,2.7,4
2016/9/8 9:45,1.7,2,1.7,1,3.8,3
2016/9/8 9:46,1.7,3,1.7,1,2.5,4
2016/9/8 9:47,1.6,3,1.6,1,2.7,16
2016/9/8 9:48,1.7,2,1.7,1,3.1,1
2016/9/8 9:49,1.7,3,1.7,2,3.2,3
2016/9/8 9:50,1.7,3,1.8,2,5.4,1
2016/9/8 9:51,1.7,3,1.8,2,4.2,4
2016/9/8 9:52,1.6,2,1.7,2,3.5,16
2016/9/8 9:53,1.5,2,1.6,2,2.9,3
2016/9/8 9:54,1.6,2,1.6,2,3.3,1
2016/9/8 9:55,1.5,2,1.6,2,2,4
2016/9/8 9:56,1.5,2,1.5,2,2,4
2016/9/8 9:57,1.5,2,1.5,2,1.9,5
2016/9/8 9:58,1.6,2,1.6,2,5.5,3
2016/9/8 9:59,1.9,2,1.9,2,6.1,3
2016/9/8 10:00,2,2,2,2,7.5,1
2016/9/8 10:01,2.1,3,2.1,2,3.2,3
2016/9/8 10:02,2.1,3,2.1,2,2.6,4
2016/9/8 10:03,2.2,3,2.2,3,3.2,3
2016/9/8 10:04,2.2,3,2.2,3,2.7,2
2016/9/8 10:05,2.2,3,2.2,3,2.1,1
2016/9/8 10:06,2.1,3,2.2,3,1.9,5
2016/9/8 10:07,2.1,3,2.1,3,1.3,5
2016/9/8 10:08,1.9,3,2,3,1.6,4
2016/9/8 10:09,1.6,3,1.8,3,2.2,4
2016/9/8 10:10,1.3,4,1.5,3,2.1,8
2016/9/8 10:11,1.2,4,1.3,3,2,8
2016/9/8 10:12,1.3,4,1.3,3,5.8,3
2016/9/8 10:13,1.3,3,1.3,3,4.2,4
2016/9/8 10:14,1.2,3,1.3,3,2.4,4
2016/9/8 10:15,1.2,4,1.2,3,1.6,6
2016/9/8 10:16,1.2,4,1.2,3,2.5,11
2016/9/8 10:17,1.3,5,1.3,3,1.9,10
2016/9/8 10:18,1.3,6,1.3,3,2.2,9
2016/9/8 10:19,1.3,6,1.3,3,2.7,6
2016/9/8 10:20,1.2,6,1.3,4,1.6,4
2016/9/8 10:21,1.3,6,1.3,4,2.5,6
2016/9/8 10:22,1.3,7,1.3,4,3.3,9
2016/9/8 10:23,1.2,8,1.3,3,3.7,12
2016/9/8 10:24,1.5,9,1.5,9,7.2,16
2016/9/8 10:25,1.8,10,1.8,10,6.4,16
2016/9/8 10:26,2,12,2,11,5.2,14
2016/9/8 10:27,2.1,16,2.1,16,4.4,15
2016/9/8 10:28,2.2,16,2.2,16,6.1,16
2016/9/8 10:29,2.3,15,2.3,16,7.7,14
2016/9/8 10:30,2.8,15,2.8,15,8.4,15
2016/9/8 10:31,3.1,15,3.1,15,7.1,15
2016/9/8 10:32,3.4,15,3.4,15,9.1,15
2016/9/8 10:33,3.8,15,3.8,15,8.6,16
2016/9/8 10:34,3.9,15,4,15,8.7,15
2016/9/8 10:35,4,15,4,15,9.1,16
2016/9/8 10:36,4.5,15,4.5,15,11.1,15
2016/9/8 10:37,4.7,15,4.7,15,6.9,16
2016/9/8 10:38,4.8,15,4.9,15,5.5,15
2016/9/8 10:39,5.1,15,5.1,15,9.3,15
2016/9/8 10:40,5,15,5,15,7.5,15
2016/9/8 10:41,4.7,15,4.9,15,5.1,15
2016/9/8 10:42,4.6,15,4.7,15,5.5,16
2016/9/8 10:43,4.4,15,4.6,15,7.6,15
2016/9/8 10:44,4.5,15,4.5,15,8.4,16
2016/9/8 10:45,4.4,15,4.5,15,8.2,16
2016/9/8 10:46,4,15,4.5,15,6.1,14
2016/9/8 10:47,3.7,15,4,15,2.7,16
2016/9/8 10:48,3.5,15,3.7,15,3,16
2016/9/8 10:49,3.3,15,3.5,15,5.2,16
2016/9/8 10:50,3.2,15,3.4,15,5.4,14
2016/9/8 10:51,3.2,15,3.2,15,3.9,16
2016/9/8 10:52,2.9,16,3.1,15,3.6,2
2016/9/8 10:53,2.7,16,2.9,15,2,16
2016/9/8 10:54,2.3,16,2.6,15,2.6,1
2016/9/8 10:55,1.9,16,2.2,15,3.8,16
2016/9/8 10:56,1.8,16,1.9,15,3.2,16
2016/9/8 10:57,1.8,16,1.8,15,3.3,3
2016/9/8 10:58,1.9,16,1.9,15,3.5,2
2016/9/8 10:59,1.7,1,1.9,15,3.1,2
2016/9/8 11:00,1.6,1,1.7,15,4.2,3
2016/9/8 11:01,1.7,1,1.7,15,3.2,3
2016/9/8 11:02,1.6,1,1.7,16,2.6,1
2016/9/8 11:03,1.7,1,1.7,16,2.9,16
2016/9/8 11:04,1.7,1,1.7,16,3,2
2016/9/8 11:05,1.7,1,1.7,16,3,1
2016/9/8 11:06,1.7,1,1.8,16,3.5,1
2016/9/8 11:07,1.9,1,1.9,16,4.9,15
2016/9/8 11:08,2.1,1,2.1,1,8.4,16
2016/9/8 11:09,2.4,16,2.4,16,8.6,15
2016/9/8 11:10,2.8,16,2.8,16,9.3,15
2016/9/8 11:11,3.1,16,3.1,16,8.5,15
2016/9/8 11:12,3.6,16,3.6,16,9.3,15
2016/9/8 11:13,3.8,16,3.8,16,5.7,1
2016/9/8 11:14,4,16,4,16,7,15
2016/9/8 11:15,4.1,15,4.1,16,6,16
2016/9/8 11:16,4.3,16,4.3,16,5.7,2
2016/9/8 11:17,4.5,15,4.5,15,10.8,15
2016/9/8 11:18,4.6,15,4.6,15,9.5,16
2016/9/8 11:19,4.6,16,4.6,15,7.5,16
2016/9/8 11:20,4.2,16,4.6,15,4.5,1
2016/9/8 11:21,3.9,16,4.2,15,7.1,16
2016/9/8 11:22,3.6,16,3.9,15,4.5,15
2016/9/8 11:23,3.4,16,3.5,15,4.8,1